User: anonymous   Login
Location: Melara
(45.0500°N, 11.1833°E)
Time: 10:52:15
(UTC+00:00)
Language:

Cosmos 1378 Rocket - Orbit

View from above orbital plane
View from above orbital plane
View from above satellite
View from above satellite

Ground track
Ground track

The orbit data is extracted from the following two-line orbital elements,

1 13272U 82059B   22227.34215153  .00000317  00000-0  34348-4 0  9995
2 13272  82.5128 167.5595 0018961  16.0748 344.1065 14.84924137150532
Epoch (UTC): 15 August 2022 08:12:41
Eccentricity: 0.0018961
inclination: 82.5128°
perigee height: 600 km
apogee height: 627 km
right ascension of ascending node: 167.5595°
argument of perigee: 16.0748°
revolutions per day: 14.84924137
mean anomaly at epoch: 344.1065°
orbit number at epoch: 15053

The dashed part of the orbit path shows where the satellite is in the earth's shadow,  

DLR